COSMOS 1275 DEB, 42170

Orbit data source: Space-Track

COSMOS 1275 DEB, 42170 is space debris in LEO originally from a launch on Thu, 04 Jun 1981 UTC launched from the Plesetsk Missile And Space Complex (PKMTR). Debris objects in space refer to the collection of defunct objects orbiting the Earth. Examples of debris include non-operational satellites, rocket bodies, and fragments generated from explosions, collisions, or faulty payload assembly.

Loading next visibility...
Identifier
42170, 1981-053SJ
Orbit
LEO
Country
Flag of CISCIS
Related business
Manufacturer
Unknown
Mission
Spacecraft
Bus & Motor
Unknown
Mass
Unknown
Launch date (UTC)
1981-06-04 (44 years ago)
Launch vehicle
Unknown
Launch site
Plesetsk Missile And Space Complex (PKMTR)
Object type
Payload
Rocket body
Debris
Shape & HBR
Unknown shape, 0.1 m
Radar Cross Section
Small (<0.1 m²)

Expand to show TLE details & history
Last TLE update: 12 hours ago

TLE from 12 hours ago
0 COSMOS 1275 DEB
1 42170U 81053SJ  25304.62449855  .00000916  00000-0  12898-2 0  9994
2 42170  82.7626  82.1314 0196385 212.0109 146.8982 13.48570264554476
Epoch: 2025-10-31T14:59Z
TLE epoch observation values (Epoch: 2025-10-31T14:59:16.674Z)
Latitude
-0.00008°
Longitude
177.14566°
Altitude
1,203.896 km
Speed
7.192 km/s
True Right ascension
05h 28m 31s
True Declination
0° 00' 00"
Sunlit
Object was in full shadow at epoch
Visualization orbit readout
Latitude
Unknown
Longitude
Unknown
Altitude
Unknown
Speed
Unknown
Apparent Right ascension
Unknown
Apparent Declination
Unknown
Sunlit
N/A
Visualization observer readout
Local Sidereal Time
22:17:42
Azimuth
Unknown
Elevation
Unknown
Doppler factor
Unknown
Orbital elements
Apogee altitude
1,221.077 km
Perigee altitude
928.351 km
Semi-major axis
7,452.851 km
Eccentricity
0.01964
Inclination
82.7626°
RAAN
82.1314°
Arg. of periapsis
212.0109°
True anomaly
148.10234°
Mean anomaly
146.8982°
Eccentric anomaly
147.50273°
Mean motion
3.37334 °/min
Orbital period
106.72 mins
BSTAR
0.0012898
Loading maneuver chart data...
Computing Atmospheric mass density...
Loading historical data...
Loading historical data...
Loading historical data...
Loading historical data...
Loading historical data...
Loading historical data...
Loading historical data...

Documentation

Showing up to 5 results
|